Weather Service Report


218 
ASHW40 PHFO 200343
RWRHI 

WEATHER ROUNDUP FOR HAWAII
NATIONAL WEATHER SERVICE HONOLULU HI
500 PM HST SAT APR 19 2014

THIS IS AN AUTOMATED REPORT THAT HAS NOT BEEN QUALITY CONTROLLED.

NOTE..."FAIR" INDICATES FEW OR NO CLOUDS BELOW 12,000 FEET WITH NO
SIGNIFICANT WEATHER AND/OR OBSTRUCTIONS TO VISIBILITY.

* - THESE SITES REPORT LIMITED FIELDS

HIZ001>004-200400-
KAUAI-NIIHAU-
  
CITY           SKY/WX    TMP DP  RH WIND       PRES   REMARKS
LIHUE APT      PTSUNNY   75  66  73 NE16      30.10S                  
PORT ALLEN*      N/A     79 N/A N/A NE21G30     N/A                   
POIPU*           N/A     77 N/A N/A NE12G22     N/A                   
PRINCEVILLE*   NOT AVBL                                               
KOKOLE POINT*  NOT AVBL                                               
MOLOAA DAIRY*  NOT AVBL                                               
WAIMEA HTS*      N/A     77  55  47 E9G21       N/A                   
PUU OPAE*        N/A     70  59  68 CALM        N/A                   
PUU LUA*       NOT AVBL                                               
MAKAHA RIDGE*    N/A    N/A N/A N/A SW3         N/A                   
$$

HIZ005>011-200400-
OAHU-
  
CITY           SKY/WX    TMP DP  RH WIND       PRES   REMARKS
HONOLULU       CLOUDY    79  61  53 NE22G28   30.06S                  
KALAELOA       CLOUDY    79  62  56 NE9G17    30.06S                  
KANEOHE MCB    PTSUNNY   75  62  63 E10G21    30.08R                  
WHEELER FIELD  CLOUDY    73  63  68 E5        30.08F                  
BELLOWS*       NOT AVBL                                               
KAHUKU*          N/A    N/A N/A N/A NE9G17      N/A                   
WHEELER*       NOT AVBL                                               
WAIANAE HARBOR NOT AVBL                                               
DILLINGHAM*      N/A     73  63  68 NE10G18     N/A                   
KAHUKU TRN*      N/A     73  64  73 E14G25      N/A                   
KAWAILOA*      NOT AVBL                                               
KII*             N/A     75  64  69 E18G24      N/A                   
MAKUA RANGE*     N/A     79  66  65 E7G35       N/A                   
OAHU FOREST NW   N/A     63  63 100 VRB16G35    N/A                   
SCHOFIELD BRK*   N/A     72  63  73 MISG        N/A                   
SCHOFIELD S*     N/A     70 N/A N/A NE1G7       N/A                   
WAIANAE VLY*     N/A     72  61  68 SE10G33     N/A                   
KUAOKALA*        N/A     72  63  73 NE18G29     N/A                   
HONOULIUULI*   NOT AVBL                                               
MOKUOLOE IS*     N/A    N/A N/A N/A MISG        N/A                   
PALEHUA*         N/A     77  64  65 CALM        N/A                   
WAIAWA PHB*    NOT AVBL                                               
$$

HIZ012>013-200400-
MOLOKAI-
  
CITY           SKY/WX    TMP DP  RH WIND       PRES   REMARKS
MOLOKAI AIRPT  PTSUNNY   75  66  73 NE14G22   30.08S                  
KALAUPAPA      NOT AVBL                                               
MAKAPULAPAI*     N/A     75  64  69 E18G26      N/A                   
MOLOKAI 1*       N/A     66  61  82 NE5G16      N/A                   
PUU ALII*        N/A     55  55  98 E3G13       N/A                   
$$

HIZ016-200400-
KAHOOLAWE-
  
CITY           SKY/WX    TMP DP  RH WIND       PRES   REMARKS
KAHOOLAWE*       N/A     70 N/A N/A E21G30      N/A                   
HAKIOAWA*        N/A     72  64  76 MISG      30.18S                  
HONOKANAIA*      N/A     78  62  56 NE16G29   30.06S                  
KANELOA*       NOT AVBL                                               
KEALIALALO*      N/A    N/A N/A N/A E18G33    30.37S                  
LUA MAKIKA*    NOT AVBL                                               
$$

HIZ014>015-200400-
LANAI-
  
CITY           SKY/WX    TMP DP  RH WIND       PRES   REMARKS
LANAI CITY     PTSUNNY   74  63  68 NE23G30   30.10R                  
LANAI 1*         N/A     70  66  88 NE20G33     N/A                   
$$

HIZ017>028-200400-
MAUI-
  
CITY           SKY/WX    TMP DP  RH WIND       PRES   REMARKS
KAHULUI        CLOUDY    77  63  61 NE16G28   30.06R                  
KAPALUA-W MAUI PTSUNNY   73  64  73 NE17      30.07                   
HANA AIRPORT   NOT AVBL                                               
HANA*            N/A     77 N/A N/A NE10        N/A                   
HALEAKALA SUMM   N/A     46  19  34 E20G37      N/A                   
MAALAEA BAY*   NOT AVBL                                               
HALEAKALA*     NOT AVBL                                               
KAUPO GAP*       N/A     72  66  83 E6G16       N/A                   
KULA 1*          N/A     55  53  92 NW3         N/A                   
$$

HIZ023>026-200400-
BIG ISLAND OF HAWAII COAST AND LOWER SLOPES-
  
CITY           SKY/WX    TMP DP  RH WIND       PRES   REMARKS
KAILUA KONA    CLOUDY    79  65  62 NW12      30.02R                  
HILO           PTSUNNY   75  67  76 NW5       30.07S                  
HONOKAA*       NOT AVBL                                               
KAWAIHAE MWT*    N/A     79 N/A N/A W14G21      N/A                   
KAWAIHAE*        N/A     77 N/A N/A W13         N/A                   
SOUTH POINT*     N/A     73 N/A N/A NE22G30     N/A                   
UPOLU AIRPORT*   N/A    N/A N/A N/A E20G29      N/A                   
KAMUELA*       CLOUDY    64  59  82 NE24      30.13S                  
HAKALAU*         N/A     55  54  96 NE3         N/A                   
KALOKO-HONOKO*   N/A     79  66  65 NW6       30.01S                  
PALI 2*          N/A     66  57  72 N23G35      N/A                   
KEALAKOMO*       N/A    N/A N/A N/A NE16G29     N/A                   
KAUPULEHU*       N/A     70  64  83 SW7         N/A                   
KAPAPALA*        N/A     74  60  61 E9G17       N/A                   
LOWER KAHUKU*  NOT AVBL                                               
PUHE CS*       NOT AVBL                                               
PUHO CS*         N/A     78  63  60 NW5G12      N/A                   
PTA KEAMUKU*     N/A     64  57  77 NE16G24     N/A                   
WAIKOLOA*        N/A    N/A N/A N/A NE17G31     N/A                   
$$

HIZ027>028-200400-
BIG ISLAND OF HAWAII INTERIOR AND SUMMMITS-
  
CITY           SKY/WX    TMP DP  RH WIND       PRES   REMARKS
BRADSHAW FIELD PTSUNNY   58  55  89 W10       30.33R                  
MK VISITOR CEN   N/A      0   0 100 MISG        N/A                   
MAUNA KEA*       N/A     39  -2  17 E16         N/A                   
MAUNA LOA*       N/A     54  -2  10 MISG        N/A                   
MAUNA LOA 1*   NOT AVBL                                               
PTA KIPUKA*      N/A     57  57 100 W5G13       N/A                   
PTA RANGE 17*    N/A     57  57 100 NW8         N/A                   
PTA WEST*        N/A     64  64 100 W6G12       N/A                   
NENE CABIN*    NOT AVBL                                               
AHUMOA*          N/A     54  54 100 SW3         N/A                   
PTA PORTABLE*  NOT AVBL                                               
PUU MALI*      NOT AVBL                                               
$$

HIC003-200400-
NORTHWEST ISLANDS-
  
CITY           SKY/WX    TMP DP  RH WIND       PRES   REMARKS
MIDWAY ISLAND  SUNNY     75  70  83 SE12      30.19S                  
MIDWAY NOS*    NOT AVBL                                               
FRENCH FRIGATE NOT AVBL                                               
$$

PHZ110>124-180-200400-
BUOY REPORTS
  
STATION/POSITION TIME  TEMP    WIND        PRES    WAVE   SWELL
                       AIR SEA DIR/SP/G            HT/PER HT/DIR
                 (UTC) (F)     (DEG/KT/KT) (MB)    (FT/S) (FT/D)
BUOY 51001       NOT AVBL
BUOY 51101       0300   73 74   60/ 16/ 19 1020.3S   7/11   5/340
BUOY 51100       0300   73 73   70/ 16/ 17 1019.3
BUOY 51003       0300   78 78   60/ 16/ 19 1016.2F   8/ 7   5
BUOY 51004       0300   77 78   70/ 17/ 21 1013.2F   9/10   7
BARBERS PT BUOY  NOT AVBL
WAIMEA BAY BUOY  0300      75                N/A     5/13   2/310
KAILUA BAY BUOY  0300      76                N/A     7/ 7   2/350
LANAI BUOY       0300      78                N/A     3/13   2/190
BARBERS PT 2     0300      76                N/A     4/13   2/290
PAUWELA MAUI     NOT AVBL
HILO             0300      78                N/A     7/10   2/100
KANEOHE BAY BUOY 0300      75                N/A     6/ 7   2/ 40
HANALEI KAUAI    0300      77                N/A     7/13   3/320
KAHULUI HARBOR   0300   76 76   50/ 21/ 24 1017.9R
HONOLULU HARBOR  0300   78      60/  5/ 12 1017.9R
KILO NALU        NOT AVBL
HILO HARBOR      0300   75 77  350/  5/  6 1017.8R
MOKUOLOE         0300   76 76   70/ 14/ 18 1018.7R
NAWILIWILI       0300      77                N/A
WHOTS BUOY       NOT AVBL
BUOY 51028       NOT AVBL
$$

......................KEY........................................
  SKY/WX - SKY CONDITIONS/PRESENT WEATHER
  TMP    - TEMPERATURE IN FAHRENHEIT
  DWPT   - DEWPOINT IN FAHRENHEIT
  RH     - RELATIVE HUMIDITY IN PERCENT
  WIND   - DIRECTION AND SPEED /MPH FOR ISLANDS...KTS FOR BUOYS/
  PRES   - MEAN SEA LEVEL PRESSURE IN INCHES OF HG
  VSB    - VISIBILITY IN MILES
  HX     - HEAT INDEX
  WCI    - WIND CHILL INDEX
  VRB    - VARIABLE WIND DIRECTION
  N/A    - NOT AVAILABLE

Return to Home page


Western Regional Climate Center, wrcc@dri.edu